Find Starlink 11511

NORAD ID: 62468 Int'l Des: 2024-254 Owner: SPXS Country: US Constellation: starlink operational
LEOCIRCULAR

リアルタイム位置

3D地球を読み込み中...

Starlink 11511について

説明を読み込み中...

次回通過

Passes for default location (London). Set your location on the main map for personalized predictions.

高度履歴

Loading altitude history...

軌道要素

1 62468U 24254G 26122.43401391 .00266369 00000-0 20145-2 0 9997
2 62468 43.0003 259.0424 0003474 299.8867 60.1655 15.70826248 77854
Epoch: May 2, 2026 • Age: 6 hours

現在のステータス

高度 365.9 km
速度 7.69 km/s
衛星直下点 -40.10°S, 89.77°E
打ち上げ日 Dec 31, 2024
運用期間 1.3 years
タイプ internet

技術仕様

分類 Payload
質量 960.00 kg
乾燥質量 910.00 kg
総質量 960.00 kg
長さ 0.30 m
直径 4.10 m
スパン 29.00 m
形状 Box + pan
製造者 SPXS
バスタイプ Starlink V2MD
フェーズステータス In Orbit
所有者/国 SPXS/US

Most Searched